New Ulm, MN

12:46 AM CST on December 11, 2019 (GMT -0600)
New Ulm Municipal

Weather History for KULM - November, 2019

Change the Weather History Date:

Thursday, November 14, 2019

  Actual Average Record
Temperature  
Mean Temperature 25 °F -  
Max Temperature 33 °F 40 °F 71 °F (1990)
Min Temperature 17 °F 25 °F -7 °F (1959)
Degree Days  
Heating Degree Days 40    
Moisture  
Dew Point 17 °F    
Average Humidity 73    
Maximum Humidity 93    
Minimum Humidity 48    
Precipitation  
Precipitation 0.00 in - - ()
Sea Level Pressure  
Sea Level Pressure 30.21 in    
Wind  
Wind Speed 8 mph ()    
Max Wind Speed 14 mph    
Max Gust Speed 17 mph    
Visibility 10.0 miles    
Events      
Averages and records for this station are not official NWS values.
T = Trace of Precipitation, MM = Missing Value Source: Averaged Metar Reports

Daily Weather History Graph

Daily Weather History Graph

Search for Another Location

Airport or City:

Astronomy

Nov. 14, 2019 Rise Set
Actual Time 7:12 AM CST 4:52 PM CST
Civil Twilight 6:40 AM CST 5:23 PM CST
Nautical Twilight 6:05 AM CST 5:58 PM CST
Astronomical Twilight 5:31 AM CST 6:32 PM CST
Moon 6:35 PM CST (11/14) 9:11 AM CST (11/14)
Length of Visible Light 10h 42m
Length of Day
9h 39m
Waning Gibbous, 95% of the Moon is Illuminated
Nov 14
Waning Gibbous
Nov 19
Last Quarter
Nov 26
New
Dec 4
First Quarter
Dec 11
Full

Hourly Weather History & Observations

Time (CST) Temp. Windchill Dew Point Humidity Pressure Visibility Wind Dir Wind Speed Gust Speed Precip Events Conditions
12:55 AM 19.4 °F 6.6 °F 12.2 °F 74% 30.13 in 10.0 mi NW 12.7 mph - N/A   Overcast
1:55 AM 19.4 °F 6.0 °F 14.0 °F 80% 30.15 in 10.0 mi NW 13.8 mph - N/A   Overcast
3:55 AM 19.4 °F 9.5 °F 12.2 °F 74% 30.19 in 10.0 mi NW 8.1 mph - N/A   Overcast
4:55 AM 19.4 °F 8.6 °F 12.2 °F 74% 30.21 in 10.0 mi NNW 9.2 mph - N/A   Overcast
5:55 AM 17.6 °F 7.3 °F 10.4 °F 73% 30.23 in 10.0 mi NNW 8.1 mph - N/A   Overcast
6:55 AM 17.6 °F 8.2 °F 10.4 °F 73% 30.23 in 10.0 mi NNW 6.9 mph - N/A   Overcast
7:55 AM 17.6 °F 6.4 °F 12.2 °F 79% 30.27 in 10.0 mi NW 9.2 mph - N/A   Overcast
8:55 AM 19.4 °F 10.4 °F 12.2 °F 74% 30.27 in 10.0 mi NW 6.9 mph - N/A   Scattered Clouds
9:55 AM 21.2 °F 10.9 °F 12.2 °F 68% 30.28 in 10.0 mi West 9.2 mph - N/A   Clear
10:55 AM 24.8 °F 16.1 °F 15.8 °F 69% 30.26 in 10.0 mi WSW 8.1 mph - N/A   Clear
11:55 AM 26.6 °F 16.8 °F 15.8 °F 64% 30.26 in 10.0 mi WSW 10.4 mph 17.3 mph N/A   Clear
1:55 PM 32.0 °F 24.2 °F 15.8 °F 51% 30.23 in 10.0 mi WSW 9.2 mph - N/A   Clear
2:55 PM 33.8 °F 25.8 °F 15.8 °F 48% 30.21 in 10.0 mi WSW 10.4 mph - N/A   Scattered Clouds
3:55 PM 33.8 °F 25.3 °F 19.4 °F 56% 30.19 in 10.0 mi SW 11.5 mph - N/A   Scattered Clouds
4:55 PM 32.0 °F 24.2 °F 21.2 °F 64% 30.18 in 10.0 mi SW 9.2 mph - N/A   Clear
6:55 PM 30.2 °F 21.3 °F 24.8 °F 80% 30.18 in 10.0 mi SW 10.4 mph - N/A   Clear
7:55 PM 32.0 °F 24.8 °F 24.8 °F 75% 30.18 in 10.0 mi WSW 8.1 mph - N/A   Clear
8:55 PM 28.4 °F 22.2 °F 24.8 °F 86% 30.19 in 10.0 mi SW 5.8 mph - N/A   Clear
9:55 PM 28.4 °F 22.2 °F 24.8 °F 86% 30.20 in 10.0 mi West 5.8 mph - N/A   Clear
10:55 PM 26.6 °F 18.2 °F 24.8 °F 93% 30.21 in 10.0 mi West 8.1 mph - N/A   Clear
11:55 PM 26.6 °F 20.0 °F 24.8 °F 93% 30.22 in 10.0 mi West 5.8 mph - N/A   Clear